Home > Weather > Nablus > Past weeks

Flag for Palestinian Territories Weather for the Past 2 Weeks in Nablus, West Bank, Palestinian Territories

Now
54 °F

Light rain. Passing clouds.


Feels Like: 52 °F
Forecast: 39 / 55 °F
Wind: 6 mph from Southeast

Location: Ben Gurion International Airport

Current Time: Feb 11, 2016 at 12:29:05 AM

Latest Report: Feb 10, 2016 at 11:50 PM


Visibility: N/A

Pressure: 30.18 "Hg (28.31 "Hg at 534m altitude)

Humidity: 82%

Dew point: 48 °F

Location of NablusLocation

Historic Weather in Nablus — Graph

°F

Nablus Temperature Yesterday

Maximum temperature yesterday: 63 °F (at 11:20 AM)
Minimum temperature yesterday: 46 °F (at 3:50 AM)
Average temperature yesterday: 55 °F

High & Low Weather Summary for the Past Weeks

 TemperatureHumidityPressure
High75 °F (Feb 4, 2:20 PM)94% (Feb 3, 6:50 AM)30.45 "Hg (Feb 3, 6:50 AM)
Low34 °F (Jan 28, 5:50 AM)21% (Feb 4, 2:20 PM)29.92 "Hg (Feb 5, 1:20 PM)
Average53 °F70%30.20 "Hg
* Reported Jan 26 10:20 PM — Feb 10 10:50 PM, Nablus, Weather by CustomWeather, © 2016

Note: Actual official high and low records may vary slightly from our data, if they occured in-between our weather recording intervals... More about our weather records

Advertising

Nablus Weather History for the Previous 24 Hours

 ConditionsComfort  
Time TempWeatherWind HumidityBarometerVisibility
10:50 PM
Wed, Feb 10
54 °FPassing clouds.5 mph82%30.18 "HgN/A
10:20 PM54 °FLight rain. Passing clouds.3 mph82%30.15 "HgN/A
9:50 PM54 °FPassing clouds.2 mph82%30.18 "HgN/A
9:20 PM55 °FPassing clouds.6 mph77%30.15 "HgN/A
8:50 PM55 °FPassing clouds.7 mph77%30.15 "HgN/A
8:20 PM55 °FPassing clouds.8 mph77%30.15 "HgN/A
7:50 PM57 °FPassing clouds.7 mph77%30.15 "HgN/A
7:20 PM57 °FPassing clouds.6 mph72%30.15 "HgN/A
6:50 PM57 °FPassing clouds.5 mph72%30.12 "HgN/A
6:20 PM57 °FPassing clouds.5 mph77%30.12 "HgN/A
5:50 PM57 °FPassing clouds.5 mph77%30.12 "HgN/A
5:20 PM59 °FScattered clouds.6 mph68%30.12 "HgN/A
4:50 PM59 °FScattered clouds.7 mph72%30.12 "HgN/A
4:20 PM61 °FScattered clouds.7 mph63%30.09 "HgN/A
3:50 PM63 °FPassing clouds.9 mph59%30.09 "HgN/A
3:20 PM63 °FScattered clouds.10 mph59%30.09 "HgN/A
2:50 PM61 °FScattered clouds.10 mph63%30.07 "HgN/A
2:20 PM61 °FScattered clouds.12 mph63%30.07 "HgN/A
1:50 PM63 °FScattered clouds.13 mph64%30.07 "HgN/A
1:20 PM63 °FPartly sunny.12 mph59%30.07 "HgN/A
12:50 PM63 °FPartly sunny.12 mph64%30.07 "HgN/A
12:20 PM61 °FLight rain. Partly sunny.15 mph68%30.07 "HgN/A
11:50 AM61 °FScattered clouds.7 mph68%30.07 "HgN/A
11:20 AM63 °FPassing clouds.5 mph59%30.07 "HgN/A
10:50 AM61 °FPassing clouds.7 mph59%30.07 "HgN/A
10:20 AM61 °FSunny.8 mph48%30.07 "Hg10 mi
9:50 AM61 °FPassing clouds.6 mph45%30.07 "HgN/A
9:20 AM57 °FPassing clouds.5 mph59%30.07 "HgN/A
8:50 AM55 °FSunny.3 mph63%30.07 "Hg10 mi
8:20 AM52 °FSunny.1 mph72%30.07 "Hg10 mi
7:50 AM48 °FSunny.3 mph82%30.07 "Hg10 mi
7:20 AM46 °FSunny.3 mph87%30.07 "Hg10 mi
6:50 AM48 °FSunny.2 mph82%30.07 "Hg10 mi
6:20 AM50 °FClear.7 mph71%30.04 "Hg10 mi
5:20 AM48 °FClear.10 mph76%30.07 "Hg10 mi
4:50 AM46 °FClear.6 mph82%30.07 "Hg10 mi
4:20 AM46 °FClear.1 mph87%30.07 "Hg10 mi
3:50 AM46 °FClear.2 mph82%30.04 "Hg10 mi
3:20 AM48 °FClear.3 mph76%30.04 "Hg10 mi
2:50 AM48 °FClear.3 mph76%30.04 "Hg10 mi
2:20 AM48 °FClear.3 mph76%30.04 "Hg10 mi
1:20 AM50 °FClear.5 mph76%30.07 "Hg10 mi
12:50 AM50 °FClear.2 mph76%30.07 "Hg10 mi
12:20 AM50 °FClear.2 mph76%30.07 "Hg10 mi
Weather by CustomWeather, © 2016

See weather overviewHow to use our weather pages